This is the latest recevied weather packets stored in our database for station/object IK2CHZ-3. If no packets are shown the sender has not sent any weather packets the latest 10 day(s).
| Time | Temp. | Humidity | Pressure | Rain* | Wind** | Luminosity | Snow |
|---|---|---|---|---|---|---|---|
| 1777462861 | 23.33° C | 53% | 1016 hPa | 0 mm | - | - | - |
| 1777462201 | 23.33° C | 53% | 1016.2 hPa | 0 mm | - | - | - |
| 1777461541 | 23.33° C | 52% | 1016.2 hPa | 0 mm | - | - | - |
| 1777461229 | 22.22° C | 52% | 1016.3 hPa | 0 mm | - | - | - |
| 1777460882 | 22.22° C | 52% | 1016.3 hPa | 0 mm | - | - | - |
| 1777460220 | 22.22° C | 55% | 1016.3 hPa | 0 mm | - | - | - |
| 1777459562 | 22.22° C | 53% | 1016.6 hPa | 0 mm | - | - | - |
| 1777458947 | 22.78° C | 54% | 1016.6 hPa | 0 mm | - | - | - |
| 1777458901 | 22.78° C | 54% | 1016.6 hPa | 0 mm | - | - | - |
| 1777458279 | 22.22° C | 56% | 1016.6 hPa | 0 mm | - | - | - |
| 1777458242 | 22.22° C | 56% | 1016.6 hPa | 0 mm | - | - | - |
| 1777457582 | 22.22° C | 56% | 1016.7 hPa | 0 mm | - | - | - |
| 1777456921 | 21.67° C | 56% | 1016.7 hPa | 0 mm | - | - | - |
| 1777456261 | 22.22° C | 56% | 1016.5 hPa | 0 mm | - | - | - |
| 1777455602 | 21.67° C | 57% | 1016.6 hPa | 0 mm | - | - | - |
| 1777454942 | 21.11° C | 59% | 1016.7 hPa | 0 mm | - | - | - |
| 1777454334 | 20.56° C | 59% | 1016.8 hPa | 0 mm | - | - | - |
| 1777454281 | 20.56° C | 59% | 1016.8 hPa | 0 mm | - | - | - |
| 1777453621 | 20.56° C | 58% | 1016.8 hPa | 0 mm | - | - | - |
| 1777452961 | 20.56° C | 58% | 1016.6 hPa | 0 mm | - | - | - |
| 1777452301 | 20° C | 59% | 1016.7 hPa | 0 mm | - | - | - |
| 1777451640 | 20° C | 60% | 1016.7 hPa | 0 mm | - | - | - |
| 1777450981 | 20° C | 59% | 1016.7 hPa | 0 mm | - | - | - |
| 1777450432 | 20° C | 60% | 1016.6 hPa | 0 mm | - | - | - |
| 1777450323 | 20° C | 60% | 1016.6 hPa | 0 mm | - | - | - |
* Rain latest hour (hover to see other rain measurements)
** Current wind speed in m/s (hover to see current wind gust speed)